YAOGAN-34 (48340 NORAD) Tracking and Keplerian Element Data

This shows tracking and keplerian element data for the satellite.

Feedback or suggestion? Click here.




ElementValue
Catalog48340
NameYAOGAN-34
Epoch Orbit214
Epoch Day136.26444572
Epoch Year2021
RAAN237.1609
Inclination63.4087
Eccentricity0.0010019
Argument of Perigee322.3938
Mean Anonmoly37.6917
Mean Motion13.45206449
Decay Rate-0.00024466
L11 48340U 21037A 21136.26444572 -.00024466 00000-0 -41377-1 0 9996
L22 48340 63.4087 237.1609 0010019 322.3938 37.6917 13.45206449 2146

Live tracking and technical data element details for YAOGAN-34 (NORAD 48340). YAOGAN-34 can be tracked NOW for your location showing map with azimuth and elevation plus other details from your city location.

Track the satellite on the map from your city or location and see movement details for azimuth, elevation, latitude, longitude, range, height, and movement on the map or in text.







IsCatalogInMostPopularTable: catalog: 48340, numindb: 3
Update: records affected: 1



GetName: 48340 YAOGAN-34

Hit Count: updated at: Mon, 17 May 2021 15:59:23 GMT